Showing default

COSMOS 489, 6019

Orbit data source: Space-Track

COSMOS 489, 6019 is a payload satellite owned by OKB-10 (CIS) in LEO that was launched on Sat, 06 May 1972 UTC via a KOSMOS 11K65M launch vehicle from the Plesetsk Missile And Space Complex (PKMTR). Payload-class satellites include a variety of spacecraft equipped with specific instruments for various scientific and technological missions. These include communications satellites like Starlink; space stations such as the ISS; scientific satellites like the Hubble; Earth observation satellites from companies like Planet Labs, Umbra, and HawkEye 360; GPS; miniature CubeSats for education and research; and military/defense satellites.

Loading next visibility...
Identifier
6019, 1972-035A
Orbit
LEO
Last TLE update
13 hours ago
Origin
Manufacturer
Omsk Av. Zav.
Mission
Defense Navigation
Bus & Motor
KAUR-1 11F617, Unknown motor
Mass
680 kg wet, 680 kg dry
Launch date (UTC)
1972-05-06 (53 years ago)
Launch vehicle
KOSMOS 11K65M
Launch site
Plesetsk Missile And Space Complex (PKMTR)
Object type
Payload
Rocket body
Debris
Shape & HBR
Cyl, 5 m
Radar Cross Section
9.978 m², Large (>1 m²)

Expand to show TLE details & history

TLE from 13 hours ago
0 COSMOS 489
1 06019U 72035A   25182.52909603 -.00000002  00000-0  21666-4 0  9993
2 06019  74.0179 189.7338 0024731 206.3165 270.0872 13.76118332668646
Epoch: 2025-07-01T12:41Z
TLE epoch observation values (Epoch: 2025-07-01T12:41:53.897Z)
Latitude
59.77685°
Longitude
-129.84465°
Altitude
987.498 km
Speed
7.364 km/s
True Right ascension
22h 41m 48s
True Declination
59° 37' 54"
Sunlit
Object was in daylight at epoch
Visualization orbit readout
Latitude
-53.22076°
Longitude
56.12156°
Altitude
1,000.632 km
Speed
7.349 km/s
Apparent Right ascension
05h 42m 30s
Apparent Declination
-73° 38' 13"
Sunlit
Object is in daylight
Visualization observer readout
Local Sidereal Time
13:30:03
Azimuth
201.012° SSW
Elevation
-45.512°
Doppler factor
1
Orbital elements
Apogee altitude
993.565 km
Perigee altitude
957.193 km
Semi-major axis
7,353.516 km
Eccentricity
0.00247
Inclination
74.0179°
RAAN
189.7338°
Arg. of periapsis
206.3165°
True anomaly
Unknown
Mean anomaly
270.0872°
Eccentric anomaly
Unknown
Mean motion
3.44192 °/min
Orbital period
104.59 mins
BSTAR
0.000021666
Loading maneuver chart data...
Loading SW <> Apogee altitude chart data...
Loading historical data...
Loading historical data...
Loading historical data...
Loading historical data...
Loading historical data...
Loading historical data...
Loading historical data...
Other satellites on launch #35 in the year 1972 (1972-05-06 UTC)

COSMOS 489 Visibility forecast

Observer location: undefined°, undefined°

Span
Click to sort rows by Start time (UTC) header in descending order
Start Az.
Max El. time (UTC)
Max El. Az.
Max El.
End time (UTC)
End Az.
12 mins2025-07-02 02:12:05.230Z215.051° SW2025-07-02 02:18:05.230Z286.002° WNW39.579°2025-07-02 02:24:05.230Z9.783° NNE
10 mins2025-07-02 11:24:05.230Z353.134° N2025-07-02 11:29:05.230Z85.289° E39.92°2025-07-02 11:34:05.230Z144.875° SSE
7 mins2025-07-02 13:12:05.230Z296.114° NW2025-07-02 13:15:05.230Z260.278° W19.433°2025-07-02 13:19:05.230Z219.626° SW
10 mins2025-07-03 00:53:05.230Z166.709° S2025-07-03 00:58:05.230Z98.672° ESE34.652°2025-07-03 01:03:05.230Z35.217° NE
|